Location: Clanezzo
(45.7500°N, 9.6000°E)
Time: 21:39:21
(UTC+00:00)

Cosmos 773 Rocket - Pass Details

Date: 30 September 2021
Orbit: 745 x 777 km, 74.1° (Epoch: 27 October)

Event Time Altitude Azimuth Distance (km) Brightness Sun altitude
Rises 18:51:25 0° 323° (NW) 3,253 8.1 -19.5°
Reaches altitude 10° 18:54:37 10° 303° (WNW) 2,326 7.6 -20.0°
Maximum altitude 18:57:48 16° 265° (W) 1,917 6.9 -20.5°
Drops below altitude 10° 19:00:59 10° 228° (SW) 2,322 6.8 -21.1°
Sets 19:04:12 0° 208° (SSW) 3,245 7.4 -21.6°
